Hourly Data Report for October 25, 2015

All times are specified in Local Standard Time (LST). Add 1 hour to adjust for Daylight Saving Time where and when it is observed.

FREDERICTON
NEW BRUNSWICK

45°52'08.000" N
66°32'14.000" W
20.70 m
8101505
71700
YFC

Download Data

Hourly Data (October 2015)
Hourly Data Report for October 25, 2015
Temp Definition
°C
Dew Point Temp Definition
°C
Rel Hum Definition
%
Wind Dir Definition
10's deg

Wind Spd Definition
km/h
Visibility Definition
km
Stn Press Definition
kPa
Hmdx Definition


Wind Chill Definition


Weather Definition


TIME
00:00 Legend Double Dagger 5.8 2.5 79 16 9 16.1 102.15     LegendNANA
01:00 Legend Double Dagger 6.0 3.0 81 19 8 16.1 102.12     LegendNANA
02:00 Legend Double Dagger 6.2 3.2 81 17 8 16.1 102.03     LegendNANA
03:00 Legend Double Dagger 7.2 3.7 78 15 11 16.1 101.85     LegendNANA
04:00 Legend Double Dagger 7.9 4.3 78 18 11 16.1 101.76     LegendNANA
05:00 Legend Double Dagger 7.9 4.5 79 17 9 16.1 101.67     LegendNANA
06:00 Legend Double Dagger 8.3 5.2 81 18 15 16.1 101.61     LegendNANA
07:00 Legend Double Dagger 8.9 6.0 82 17 15 16.1 101.53     LegendNANA
08:00 Legend Double Dagger 9.8 6.5 80 16 22 16.1 101.37     LegendNANA
09:00 Legend Double Dagger 10.6 6.7 77 18 22 16.1 101.31     LegendNANA
10:00 Legend Double Dagger 11.3 7.2 76 19 22 16.1 101.25     LegendNANA
11:00 Legend Double Dagger 10.6 8.4 86 19 28 16.1 101.16     Rain
12:00 Legend Double Dagger 10.9 8.8 87 19 24 16.1 101.09     Rain
13:00 Legend Double Dagger 10.9 9.7 92 18 28 6.4 100.99     Rain,Fog
14:00 Legend Double Dagger 11.0 9.9 93 19 22 12.9 100.95     Rain
15:00 Legend Double Dagger 11.1 10.0 93 19 21 16.1 100.91     LegendNANA
16:00 Legend Double Dagger 11.3 10.2 93 20 22 9.7 100.92     Fog
17:00 Legend Double Dagger 11.4 10.5 94 20 18 9.7 100.93     Fog
18:00 Legend Double Dagger 11.4 10.5 94 20 24 16.1 100.93     LegendNANA
19:00 Legend Double Dagger 11.3 10.2 93 22 17 16.1 101.02     Rain
20:00 Legend Double Dagger 11.3 10.1 92 24 11 16.1 101.09     LegendNANA
21:00 Legend Double Dagger 10.9 8.3 84 29 15 16.1 101.19     LegendNANA
22:00 Legend Double Dagger 8.3 5.1 80 30 18 16.1 101.38     LegendNANA
23:00 Legend Double Dagger 6.1 2.7 79 30 17 16.1 101.47     LegendNANA

Notes on Data Quality.

Legend

  • E = Estimated
  • M = Missing
  • NA = Not Available
  • ‡ = Partner data that is not subject to review by the National Climate Archives
Date modified: